Location: Ciserano
(45.5833°N, 9.6000°E)
Time: 17:59:35
(UTC+00:00)

Cosmos 1151 Rocket - Pass Details

Date: 29 November 2020
Orbit: 593 x 614 km, 82.5° (Epoch: 23 January)

Event Time Altitude Azimuth Distance (km) Brightness Sun altitude
Exits shadow 04:17:05 52° 181° (S) 748 3.4 -24.3°
Drops below altitude 10° 04:20:21 10° 175° (S) 1,933 5.7 -23.7°
Sets 04:22:32 0° 175° (S) 2,834 6.6 -23.3°
